• Join FlightAware (Why Join?)
  • Login
  • US Flag 
06:31PM EST


 

Airport Tracker/Info


-or-


 

Live Flight TrackerFlight Track Log ✈ N147SW ✈ 19-Mar-2014 ✈ KTLH - KPIE

Flight Track Log - Related Links

Times and Time Zones

All times are in EDT time to prevent confusion due to time zone crossing. See the N147SW flight status page for this flight to view local times or setup timezone preferences in your user account.

Time Position Orientation Groundspeed Altitude Reporting Facility
EDT Latitude Longitude Course Direction KTS MPH feet Rate Location/Type
01:15PM 30.4444 -84.2997 144° Southeast 272 313 6,700  Level Jacksonville Center
01:16PM 30.3783 -84.2553 150° Southeast 285 328 9,700 3,240 Climbing Jacksonville Center
01:17PM 30.3017 -84.2014 149° Southeast 310 357 13,200 2,940 Climbing Jacksonville Center
01:18PM 30.2144 -84.1497 153° Southeast 333 383 15,700 2,460 Climbing Jacksonville Center
01:19PM 30.1253 -84.0933 151° Southeast 351 404 18,200 2,160 Climbing Jacksonville Center
01:20PM 29.9162 -83.9663 144° Southeast  Level FlightAware Approximate
01:20PM 30.0317 -84.0322 151° Southeast 365 420 20,100  Level Jacksonville Center
01:21PM 29.9342 -83.9686 151° Southeast 385 443 21,000 420 Climbing Jacksonville Center
01:22PM 29.8261 -83.9006 151° Southeast 416 479 21,000  Level Jacksonville Center
01:23PM 29.7119 -83.8275 151° Southeast 444 511 21,000  Level Jacksonville Center
01:24PM 29.5997 -83.7547 151° Southeast 460 529 21,000  Level Jacksonville Center
01:25PM 29.4853 -83.6800 150° Southeast 460 529 21,000  Level Jacksonville Center
01:26PM 29.3708 -83.6075 151° Southeast 465 535 21,000  Level Jacksonville Center
01:27PM 29.2586 -83.5353 151° Southeast 465 535 21,000  Level Jacksonville Center
01:28PM 29.1442 -83.4631 151° Southeast 465 535 21,000 -120 Level Jacksonville Center
01:29PM 29.0400 -83.3961 151° Southeast 465 535 20,800 -1,200 Descending Jacksonville Center
01:30PM 28.9275 -83.3267 152° Southeast 465 535 18,700 -1,800 Descending Jacksonville Center
01:31PM 28.8236 -83.2575 150° Southeast 452 520 17,200 -1,680 Descending Jacksonville Center
01:32PM 28.7214 -83.1956 152° Southeast 429 494 15,400 -1,860 Descending Jacksonville Center
01:33PM 28.6167 -83.1167 147° Southeast 426 490 13,500 -1,620 Descending Tampa TRACON
01:34PM 28.5667 -83.1000 164° South 420 483 13,000 -360 Descending Tampa TRACON
01:35PM 28.4667 -83.0333 150° Southeast 411 473 13,000 -60 Level Tampa TRACON
01:36PM 28.3667 -82.9667 150° Southeast 413 475 12,900 -1,080 Descending Tampa TRACON
01:37PM 28.2667 -82.9167 156° South 412 474 10,900 -1,860 Descending Tampa TRACON
01:38PM 28.1833 -82.8500 145° Southeast 316 364 9,200 -1,800 Descending Tampa TRACON
01:39PM 28.1000 -82.8333 170° South 267 307 7,200 -1,980 Descending Tampa TRACON
01:40PM 28.0167 -82.8167 170° South 289 333 5,100 -2,100 Descending Tampa TRACON
01:41PM 27.9500 -82.8167 180° South 278 320 3,300 -1,380 Descending Tampa TRACON
01:42PM 27.8833 -82.8167 180° South 255 293 2,500 -420 Descending Tampa TRACON
01:43PM 27.8167 -82.7667 146° Southeast 228 262 2,500 -240 Level Tampa TRACON
01:44PM 27.7667 -82.7333 149° Southeast 201 231 2,000 -300 Descending Tampa TRACON
01:45PM 27.7500 -82.6833 111° Southeast 198 228 2,000 120 Level Tampa TRACON
01:46PM 27.8000 -82.6667 16° North 191 220 2,300 -360 Climbing Tampa TRACON
01:47PM 27.8500 -82.6833 344° North 183 211 1,300 -1,020 Descending Tampa TRACON
01:48PM 27.9000 -82.6833 360° North 140 161 200 -1,140 Descending Tampa TRACON